Theta_e
313 312 313 314 314 315 315 316 317 319 321 326 328 329 331 334 337 339 340 339 344 340 338 339 331 327 323 320 319 319 318 317 320 316 314 312 311 310 308 306 306 306 307
310 309 310 311 313 314 315 316 316 317 319 323 327 329 332 333 335 338 341 341 341 335 333 332 326 321 318 317 314 313 311 311 312 316 312 310 310 308 307 306 307 307 308
308 308 308 309 311 311 313 314 315 317 319 321 327 329 331 332 335 338 339 337 337 333 330 326 321 316 314 311 309 308 307 307 308 309 309 308 307 306 306 307 307 308 308
306 306 307 308 310 310 311 313 315 318 322 324 328 330 329 332 336 336 334 331 328 324 320 313 314 311 309 307 307 307 306 307 309 308 307 306 306 306 306 307 308 308 308
305 306 307 309 309 310 313 317 318 320 322 325 330 331 332 334 333 331 325 317 313 310 309 309 307 305 303 302 303 305 306 307 306 305 305 306 307 307 307 306 307 307 308
305 306 307 308 310 314 317 324 321 325 328 329 329 329 327 324 322 322 317 310 308 307 305 304 304 303 300 300 301 304 306 306 305 305 306 307 308 307 306 305 307 306 309
305 305 306 307 312 311 311 313 312 312 312 312 312 313 313 313 313 312 310 307 306 304 303 302 302 301 300 300 300 297 297 300 303 306 307 307 307 306 305 305 305 305 307
303 304 306 308 309 308 307 306 306 307 306 305 305 305 305 305 307 306 306 305 304 303 303 302 302 300 301 301 301 301 302 302 301 304 305 304 302 302 303 304 305 306 307
303 304 305 305 305 304 303 303 303 302 302 301 301 301 301 301 303 303 303 302 301 300 300 299 300 300 300 301 301 302 303 302 300 301 301 302 302 302 300 303 306 305 307
301 303 303 302 301 300 301 301 300 300 299 299 298 298 298 298 300 300 300 300 299 298 298 297 297 297 299 301 302 304 304 303 304 305 306 306 306 306 304 304 303 304 306
300 301 300 299 299 299 299 299 299 298 298 298 297 297 297 298 298 299 299 299 298 297 296 295 295 297 298 299 300 300 300 302 304 306 306 307 307 306 305 304 304 304 305
298 298 298 298 298 298 298 298 298 298 298 297 296 296 296 297 299 299 298 298 297 297 296 296 295 296 296 296 297 298 300 303 305 305 306 306 306 306 305 306 305 304 303
297 296 296 296 296 296 297 297 297 297 297 296 295 295 295 296 296 297 296 296 296 296 295 295 295 295 297 297 298 299 302 303 304 305 306 305 305 305 306 305 304 303 303
295 295 295 295 294 295 295 296 295 296 296 295 294 295 295 295 295 294 295 296 296 296 296 295 295 296 297 299 301 301 301 301 303 304 305 305 305 306 306 304 304 303 303
296 295 294 295 294 294 295 294 294 294 294 295 294 293 294 294 295 296 297 297 297 297 297 297 297 297 297 298 299 301 301 302 303 304 304 304 305 305 304 304 304 303 303
295 295 295 295 295 295 294 293 293 293 293 293 293 293 293 294 295 294 294 293 294 296 297 297 296 296 296 297 298 299 301 301 302 302 303 304 304 304 303 304 303 302 302
294 294 295 295 296 296 295 294 292 292 293 292 292 292 292 291 291 292 292 293 294 295 296 296 296 296 296 296 296 297 299 300 301 301 302 302 302 303 303 303 302 302 300
295 295 296 296 296 296 295 295 294 293 292 291 291 290 291 291 292 293 294 295 296 295 295 295 295 295 295 295 295 296 297 299 300 301 301 301 301 302 303 302 302 300 298
295 296 296 296 296 296 296 295 294 293 292 292 291 291 291 292 292 293 294 295 295 295 295 295 295 295 295 295 295 295 296 298 299 300 300 300 300 301 302 301 301 300 299
295 296 297 296 296 296 296 296 296 295 295 294 293 293 294 294 294 294 294 294 294 294 294 294 294 294 294 294 294 294 296 298 299 299 299 300 300 301 301 300 300 300 297
296 297 297 297 297 297 297 296 296 295 294 294 293 292 293 294 294 294 294 294 294 294 294 293 293 293 293 293 293 293 295 297 298 298 299 300 300 301 301 301 300 300 296
296 297 297 297 297 297 297 296 295 294 293 292 292 292 293 294 294 293 293 293 293 293 293 293 293 293 293 293 292 292 293 296 297 298 298 299 300 300 300 299 297 295 294
296 297 297 297 296 296 296 295 294 293 293 293 293 293 293 293 293 293 293 293 293 292 292 292 292 292 292 292 291 290 292 294 296 297 298 299 299 298 297 297 295 293 293
297 297 297 297 297 296 296 295 293 293 293 293 293 293 293 293 293 293 293 292 292 292 292 292 291 291 291 290 289 289 290 291 293 296 297 298 298 296 295 293 293 292 293
297 297 296 296 296 295 295 294 293 293 293 292 292 292 292 292 292 292 292 292 292 292 291 291 291 290 289 288 287 289 290 291 292 295 297 298 296 294 293 293 293 293 293
296 296 296 296 296 295 295 293 292 292 292 291 291 291 291 291 291 292 292 292 292 291 291 290 290 289 288 287 285 289 291 291 292 294 296 297 296 293 294 294 293 292 292
Wind_Speed
29 31 29 28 28 29 29 29 30 30 31 33 30 30 30 31 29 29 30 26 24 19 19 20 17 19 19 12 9 9 5 2 3 2 3 4 6 5 9 11 13 13 12
34 32 31 30 30 31 31 31 29 29 30 32 30 29 28 31 30 27 25 22 23 21 19 18 18 19 18 22 8 9 12 8 1 4 3 6 3 5 9 12 11 12 12
33 32 33 33 31 32 33 32 30 30 30 30 29 29 29 29 28 25 24 21 21 19 19 20 20 22 18 18 18 10 11 12 2 3 3 2 3 5 11 9 11 11 12
32 32 33 34 34 36 36 33 31 29 29 27 28 29 30 28 26 21 22 18 17 22 21 21 20 23 22 21 18 15 13 8 4 3 1 1 3 7 8 11 13 12 14
32 31 32 33 36 37 37 34 26 24 27 26 26 28 22 21 25 24 28 30 31 32 27 28 25 24 19 23 22 13 10 6 5 3 2 1 5 8 10 12 12 15 13
32 31 32 32 32 29 27 19 19 19 17 18 18 23 26 23 30 34 35 33 31 35 37 34 29 24 23 22 21 14 10 5 4 5 3 5 5 8 10 12 12 13 8
29 30 30 30 23 17 13 18 22 23 23 23 22 26 28 33 37 38 38 36 34 32 31 33 27 22 25 24 23 16 12 10 12 8 7 7 7 9 10 11 11 11 14
27 27 27 23 16 12 13 19 24 27 26 26 27 30 35 35 44 46 44 40 37 33 30 26 23 21 20 22 21 12 7 8 9 8 8 7 6 8 8 10 11 13 12
24 25 20 16 15 15 16 18 24 30 32 33 30 34 36 32 41 44 46 43 39 34 30 24 19 15 18 18 16 11 8 7 6 11 11 11 11 10 12 9 12 12 12
23 21 17 17 19 21 20 22 26 33 35 36 38 35 33 35 37 37 38 38 37 32 30 25 19 17 17 15 12 8 10 9 7 7 8 8 9 10 10 9 9 10 12
19 17 19 21 23 24 27 27 27 33 38 37 38 35 36 35 38 36 33 33 32 30 27 25 20 18 19 19 16 12 8 6 9 8 6 8 10 10 10 10 8 9 13
19 20 21 22 23 27 30 29 28 29 35 34 35 34 34 35 37 36 34 30 30 26 23 20 22 20 19 18 16 16 14 12 10 9 9 10 10 11 11 11 10 9 11
18 20 22 24 25 26 30 29 29 27 29 31 30 29 28 31 35 33 30 28 25 26 24 25 23 21 18 19 22 20 16 13 13 12 10 9 10 9 10 11 12 14 14
18 20 22 25 28 29 31 31 32 28 28 29 28 26 25 27 28 30 28 31 27 25 22 21 21 20 19 19 17 17 16 16 14 11 10 10 10 11 12 16 17 17 13
18 21 23 26 31 35 37 34 36 32 27 27 25 23 20 21 15 15 19 21 20 18 17 17 17 17 18 17 17 17 18 15 13 12 13 13 14 14 16 18 16 15 13
18 19 21 25 31 35 38 39 39 35 31 31 28 26 24 23 23 29 30 22 17 17 18 19 19 18 18 18 18 17 16 15 15 15 15 16 16 17 18 15 14 15 15
20 21 24 28 29 29 27 27 28 33 31 29 27 27 29 31 31 29 25 23 21 19 21 20 20 20 19 19 17 16 16 17 16 16 17 18 17 15 14 15 15 18 18
26 27 29 28 27 26 25 26 26 24 22 24 27 30 30 27 23 18 19 20 23 23 22 22 20 20 18 17 17 18 18 18 17 19 17 17 14 13 14 16 17 19 16
25 24 23 24 25 25 25 26 24 24 25 25 24 25 27 28 27 25 22 22 22 22 21 21 20 18 18 18 18 19 18 19 20 19 17 14 14 14 16 17 18 18 17
26 26 25 25 22 24 24 23 21 21 22 22 21 18 16 18 21 21 22 23 23 22 20 19 19 19 19 19 20 19 20 21 19 17 15 14 15 16 18 19 18 18 19
18 19 19 17 18 20 19 20 20 21 20 20 20 20 19 20 21 22 22 23 22 21 19 19 20 20 20 21 21 21 20 19 18 16 15 16 17 18 18 18 19 18 19
13 15 16 16 17 19 20 20 21 22 22 23 22 20 21 22 22 22 21 21 21 20 20 20 21 20 21 22 21 20 18 17 18 18 18 18 19 19 18 19 21 20 20
12 14 15 17 19 19 21 21 22 22 21 20 19 19 19 20 20 20 20 20 20 21 21 22 20 21 21 19 19 19 19 18 16 19 18 18 19 19 19 19 22 23 21
11 15 16 17 18 19 19 20 20 20 20 20 19 19 19 19 19 19 19 19 19 19 21 21 23 23 19 17 19 20 20 18 16 18 18 18 18 19 19 21 21 22 20
13 15 17 17 18 20 20 19 19 19 19 19 18 18 18 17 17 17 17 18 18 20 21 21 19 18 20 22 23 21 23 26 23 21 18 18 18 19 21 21 22 21 23
13 15 16 17 17 18 19 19 19 18 19 18 17 17 16 16 16 17 18 18 19 19 18 19 19 21 22 22 23 24 26 29 27 25 21 18 19 22 21 22 23 24 23
Wind_Direction
306 305 299 296 292 287 280 274 270 267 265 265 254 247 241 235 229 224 227 221 208 198 201 196 185 173 161 162 167 155 146 286 269 127 196 199 240 273 300 315 310 308 309
310 306 299 297 292 287 281 277 270 265 261 260 252 246 237 230 226 220 215 208 201 189 191 176 170 157 150 159 164 119 116 71 70 216 118 221 259 298 309 309 318 317 313
312 307 304 300 294 287 281 275 267 262 257 252 250 240 233 227 221 208 192 197 200 180 171 167 161 146 143 151 141 130 102 97 208 181 187 229 305 323 316 320 329 323 317
314 308 302 298 296 292 285 272 262 255 253 241 243 232 229 222 205 183 174 162 145 139 140 137 138 139 138 135 121 114 120 122 142 144 178 329 350 328 326 344 335 338 330
314 308 303 304 300 295 288 276 259 248 247 246 235 226 218 190 174 163 141 141 135 125 125 135 135 130 130 122 117 105 114 140 155 133 55 347 13 350 359 340 336 340 336
316 316 314 311 306 309 314 277 247 256 251 239 222 162 152 155 154 150 144 131 126 123 118 113 115 119 116 118 114 120 126 117 125 75 73 50 21 7 358 351 341 346 338
322 320 319 315 322 341 20 69 76 78 83 87 96 111 113 128 138 136 133 122 116 114 115 119 119 121 120 115 105 100 97 107 97 90 76 47 14 359 350 340 341 331 322
327 327 328 333 353 9 47 67 79 81 80 82 84 95 101 111 123 120 115 111 106 107 110 115 124 131 124 109 100 106 113 90 78 75 64 44 9 355 345 328 310 320 318
338 335 348 2 31 41 50 66 78 84 80 80 83 87 95 99 109 113 114 109 105 104 114 112 113 117 112 104 111 118 106 85 54 49 41 30 19 13 5 347 357 337 335
348 348 21 35 53 60 62 69 79 86 87 87 83 82 86 89 98 103 108 110 105 105 108 106 99 96 103 101 103 106 87 64 54 48 33 14 12 6 6 349 325 325 334
7 21 45 55 64 69 73 75 84 91 91 88 86 81 81 84 90 94 96 101 102 100 101 96 98 95 93 89 81 72 71 51 46 38 27 23 18 11 -0 343 332 326 327
29 43 54 64 71 77 80 79 82 89 92 89 85 81 79 85 97 98 99 100 104 102 101 98 90 84 80 75 69 67 52 46 43 38 30 23 7 3 348 355 346 332 318
53 56 58 66 69 76 81 82 81 81 86 88 84 83 82 83 91 98 100 97 98 92 95 96 87 76 69 64 60 54 49 45 40 36 25 14 3 359 355 358 360 355 343
58 62 65 71 74 74 77 78 79 79 83 85 84 84 87 87 90 98 97 91 92 93 89 90 86 78 73 61 54 50 47 43 34 26 19 9 12 13 9 8 3 353 336
69 77 80 81 81 78 76 77 78 72 79 85 82 88 94 99 102 107 102 97 97 98 94 88 79 69 63 58 53 47 41 36 30 26 24 19 22 16 13 6 351 343 344
68 73 82 87 85 86 87 80 77 78 82 89 94 96 98 101 106 102 96 95 91 91 88 81 72 65 58 51 45 40 37 32 27 26 26 26 21 13 4 351 350 352 355
75 79 82 85 88 90 89 88 90 86 94 96 101 104 104 104 99 98 95 90 87 86 79 72 67 60 54 48 42 38 33 30 27 29 27 25 13 1 358 354 358 7 3
83 84 85 85 89 91 91 91 94 93 92 88 95 98 95 90 88 86 86 81 77 70 68 64 60 56 50 45 40 34 31 26 28 29 25 18 1 352 358 2 5 6 354
83 85 86 85 87 90 95 99 100 99 100 103 100 89 88 84 79 74 75 76 74 69 64 62 58 54 48 43 36 34 31 29 28 24 19 8 1 0 7 2 1 6 3
83 92 96 99 98 105 108 109 105 103 103 100 97 96 93 87 78 76 73 71 69 66 63 60 55 49 43 39 34 29 29 28 24 19 11 7 10 12 9 5 4 6 6
84 101 111 111 111 105 103 102 102 100 95 90 81 80 86 87 81 75 71 68 67 64 59 55 52 47 41 37 29 27 26 23 20 15 11 14 15 13 8 5 5 10 9
98 110 107 105 111 107 105 105 104 103 102 100 97 90 86 83 81 78 76 72 67 63 57 54 51 45 40 35 27 21 21 20 17 15 16 18 20 14 9 12 14 9 7
109 115 108 103 103 108 104 104 105 106 105 102 96 91 87 85 82 80 76 72 68 63 58 54 50 46 40 33 28 23 19 16 14 19 20 24 23 13 13 15 15 11 8
119 117 114 109 106 103 101 100 99 99 101 99 96 93 88 83 81 78 76 72 68 64 59 54 51 49 42 36 32 28 27 30 24 24 27 33 27 18 20 18 18 13 12
121 116 114 113 109 108 108 106 105 103 100 98 96 95 92 90 85 82 80 77 72 67 61 56 53 48 42 38 36 37 42 43 38 42 36 40 34 28 28 23 23 22 24
118 120 119 117 115 112 111 110 109 108 104 101 98 95 96 95 91 86 81 77 74 71 66 59 52 47 41 36 36 46 49 46 42 44 42 43 36 30 33 31 31 31 30